| time (UTC) | temp F | wind direction | speed knots | gust knots | rain 1hr in | rain 24hr in | rain mn in | humidity % | barometer mb |
| 20260902072522 | 90 | 267 | 0.9 | 3.5 | 0.00 | 0.00 | 0.00 | 47 | 1011.4 |
| 20260902071622 | 91 | 177 | 0.9 | 3.5 | 0.00 | 0.00 | 0.00 | 46 | 1011.4 |
| 20260902070722 | 91 | 148 | 0.9 | 5.2 | 0.00 | 0.00 | 0.00 | 45 | 1011.2 |
| 20260902065822 | 91 | 142 | 0.9 | 3.5 | 0.00 | 0.00 | 0.00 | 45 | 1011.2 |
| 20260902064922 | 91 | 162 | 0.9 | 4.3 | 0.00 | 0.00 | 0.00 | 45 | 1011.1 |
| 20260902064022 | 91 | 164 | 0.0 | 3.5 | 0.00 | 0.00 | 0.00 | 45 | 1011.1 |
| 20260902062222 | 91 | 166 | 0.9 | 4.3 | 0.00 | 0.00 | 0.00 | 45 | 1011.1 |
| 20260902061322 | 91 | 166 | 0.9 | 3.5 | 0.00 | 0.00 | 0.00 | 45 | 1011.1 |
| 20260902055522 | 92 | 168 | 0.9 | 4.3 | 0.00 | 0.00 | 0.00 | 44 | 1011.2 |
| 20260902052822 | 92 | 174 | 1.7 | 5.2 | 0.00 | 0.00 | 0.00 | 42 | 1011.4 |
| 20260902051922 | 93 | 188 | 0.9 | 5.2 | 0.00 | 0.00 | 0.00 | 41 | 1011.4 |
| 20260902050122 | 91 | 0 | 0.0 | 0.0 | 0.00 | 0.00 | 0.00 | 41 | 1011.1 |
| 20260902045222 | 92 | 0 | 0.0 | 0.0 | 0.00 | 0.00 | 0.00 | 41 | 1011.1 |
| 20260902044322 | 91 | 0 | 0.0 | 0.0 | 0.00 | 0.00 | 0.00 | 42 | 1011.0 |
| 20260902043422 | 91 | 0 | 0.0 | 0.0 | 0.00 | 0.00 | 0.00 | 41 | 1010.9 |
| 20260902042522 | 91 | 0 | 0.0 | 0.0 | 0.00 | 0.00 | 0.00 | 41 | 1010.8 |
| 20260902041622 | 92 | 0 | 0.0 | 0.0 | 0.00 | 0.00 | 0.00 | 40 | 1010.8 |
| 20260902040722 | 92 | 0 | 0.0 | 0.0 | 0.00 | 0.00 | 0.00 | 40 | 1010.8 |
| 20260902035822 | 92 | 0 | 0.0 | 0.0 | 0.00 | 0.00 | 0.00 | 40 | 1010.7 |
| 20260902034922 | 92 | 0 | 0.0 | 0.0 | 0.00 | 0.00 | 0.00 | 39 | 1010.6 |
| 20260902034022 | 93 | 0 | 0.0 | 0.0 | 0.00 | 0.00 | 0.00 | 39 | 1010.4 |
| 20260902033122 | 94 | 0 | 0.0 | 0.0 | 0.00 | 0.00 | 0.00 | 38 | 1010.3 |
| 20260902032222 | 93 | 0 | 0.0 | 0.0 | 0.00 | 0.00 | 0.00 | 38 | 1010.1 |
| 20260902031322 | 94 | 0 | 0.0 | 0.0 | 0.00 | 0.00 | 0.00 | 38 | 1009.9 |
| 20260902030422 | 94 | 0 | 0.0 | 0.0 | 0.00 | 0.00 | 0.00 | 38 | 1009.7 |
| 20260902025522 | 94 | 0 | 0.0 | 0.0 | 0.00 | 0.00 | 0.00 | 37 | 1009.6 |
| 20260902024622 | 94 | 178 | 0.0 | 1.7 | 0.00 | 0.00 | 0.00 | 38 | 1009.5 |
| 20260902021922 | 95 | 178 | 0.9 | 1.7 | 0.00 | 0.00 | 0.00 | 37 | 1009.4 |
| 20260902021022 | 95 | 178 | 0.0 | 3.5 | 0.00 | 0.00 | 0.00 | 36 | 1009.4 |
| 20260902020122 | 95 | 178 | 0.0 | 1.7 | 0.00 | 0.00 | 0.00 | 36 | 1009.3 |
| 20260902015222 | 96 | 178 | 0.9 | 3.5 | 0.00 | 0.00 | 0.00 | 36 | 1009.1 |
| 20260902014322 | 96 | 178 | 0.0 | 3.5 | 0.00 | 0.00 | 0.00 | 36 | 1009.1 |
| 20260902013422 | 96 | 178 | 0.0 | 1.7 | 0.00 | 0.00 | 0.00 | 36 | 1009.1 |
| 20260902012522 | 96 | 178 | 1.7 | 3.5 | 0.00 | 0.00 | 0.00 | 35 | 1009.1 |
| 20260902010722 | 97 | 157 | 1.7 | 4.3 | 0.00 | 0.00 | 0.00 | 34 | 1009.3 |
| 20260902005822 | 98 | 31 | 0.9 | 5.2 | 0.00 | 0.00 | 0.00 | 35 | 1009.5 |
| 20260902004922 | 98 | 287 | 0.9 | 3.5 | 0.00 | 0.00 | 0.00 | 34 | 1009.4 |
| 20260902004022 | 98 | 214 | 1.7 | 6.1 | 0.00 | 0.00 | 0.00 | 34 | 1009.6 |
| 20260902003121 | 99 | 239 | 2.6 | 4.3 | 0.00 | 0.00 | 0.00 | 34 | 1009.6 |
| 20260902002222 | 98 | 201 | 2.6 | 6.1 | 0.00 | 0.00 | 0.00 | 34 | 1009.8 |
| 20260902000422 | 99 | 227 | 2.6 | 7.8 | 0.00 | 0.00 | 0.00 | 34 | 1009.8 |
| 20260901235522 | 100 | 232 | 1.7 | 6.1 | 0.00 | 0.00 | 0.00 | 35 | 1009.9 |
| 20260901234622 | 100 | 159 | 1.7 | 6.1 | 0.00 | 0.00 | 0.00 | 35 | 1009.8 |
| 20260901232821 | 99 | 196 | 1.7 | 8.7 | 0.00 | 0.00 | 0.00 | 35 | 1010.1 |
| 20260901231921 | 99 | 190 | 2.6 | 7.0 | 0.00 | 0.00 | 0.00 | 36 | 1010.1 |
| 20260901231021 | 99 | 178 | 3.5 | 8.7 | 0.00 | 0.00 | 0.00 | 35 | 1010.2 |
| 20260901224322 | 100 | 154 | 3.5 | 7.0 | 0.00 | 0.00 | 0.00 | 36 | 1010.5 |
| 20260901223421 | 100 | 169 | 4.3 | 11.3 | 0.00 | 0.00 | 0.00 | 34 | 1010.4 |
| 20260901222521 | 100 | 156 | 3.5 | 8.7 | 0.00 | 0.00 | 0.00 | 36 | 1010.5 |
| 20260901221621 | 100 | 223 | 3.5 | 10.4 | 0.00 | 0.00 | 0.00 | 36 | 1010.7 |
| 20260901215821 | 101 | 271 | 2.6 | 7.8 | 0.00 | 0.00 | 0.00 | 36 | 1010.9 |
| 20260901214921 | 100 | 247 | 1.7 | 5.2 | 0.00 | 0.00 | 0.00 | 38 | 1011.0 |
| 20260901214021 | 101 | 191 | 1.7 | 6.1 | 0.00 | 0.00 | 0.00 | 38 | 1011.1 |
| 20260901212221 | 99 | 214 | 2.6 | 7.0 | 0.00 | 0.00 | 0.00 | 36 | 1011.5 |
| 20260901210421 | 99 | 210 | 2.6 | 7.8 | 0.00 | 0.00 | 0.00 | 38 | 1011.9 |
| 20260901205521 | 98 | 205 | 0.9 | 6.1 | 0.00 | 0.00 | 0.00 | 39 | 1012.0 |
| 20260901204621 | 97 | 238 | 1.7 | 5.2 | 0.00 | 0.00 | 0.00 | 41 | 1012.1 |
| 20260901203721 | 97 | 164 | 2.6 | 8.7 | 0.00 | 0.00 | 0.00 | 41 | 1012.2 |
| 20260901202821 | 98 | 175 | 3.5 | 8.7 | 0.00 | 0.00 | 0.00 | 40 | 1012.3 |
| 20260901201921 | 99 | 272 | 4.3 | 10.4 | 0.00 | 0.00 | 0.00 | 39 | 1012.5 |
| 20260901201021 | 98 | 269 | 2.6 | 8.7 | 0.00 | 0.00 | 0.00 | 41 | 1012.6 |
| 20260901200121 | 97 | 258 | 1.7 | 7.8 | 0.00 | 0.00 | 0.00 | 42 | 1012.7 |
| 20260901195221 | 97 | 217 | 1.7 | 7.0 | 0.00 | 0.00 | 0.00 | 42 | 1012.8 |
| 20260901194321 | 96 | 242 | 2.6 | 6.1 | 0.00 | 0.00 | 0.00 | 43 | 1012.9 |
| 20260901193421 | 96 | 190 | 2.6 | 5.2 | 0.00 | 0.00 | 0.00 | 43 | 1013.0 |
| 20260901192521 | 95 | 179 | 2.6 | 7.8 | 0.00 | 0.00 | 0.00 | 44 | 1013.1 |
| 20260901191621 | 96 | 148 | 1.7 | 6.1 | 0.00 | 0.00 | 0.00 | 45 | 1013.3 |
| 20260901190721 | 95 | 37 | 2.6 | 4.3 | 0.00 | 0.00 | 0.00 | 45 | 1013.4 |
| 20260901185821 | 94 | 157 | 2.6 | 7.8 | 0.00 | 0.00 | 0.00 | 44 | 1013.7 |
| 20260901184921 | 94 | 177 | 1.7 | 6.1 | 0.00 | 0.00 | 0.00 | 46 | 1013.8 |
| 20260901184021 | 94 | 236 | 2.6 | 6.1 | 0.00 | 0.00 | 0.00 | 46 | 1013.9 |
| 20260901183121 | 93 | 183 | 2.6 | 7.0 | 0.00 | 0.00 | 0.00 | 47 | 1014.1 |
| 20260901182221 | 92 | 191 | 2.6 | 9.6 | 0.00 | 0.00 | 0.00 | 46 | 1014.1 |
| 20260901181321 | 93 | 222 | 1.7 | 7.0 | 0.00 | 0.00 | 0.00 | 49 | 1014.2 |
| 20260901180421 | 92 | 103 | 3.5 | 7.0 | 0.00 | 0.00 | 0.00 | 49 | 1014.2 |
| 20260901175521 | 91 | 144 | 2.6 | 8.7 | 0.00 | 0.00 | 0.00 | 50 | 1014.3 |
| 20260901174621 | 92 | 210 | 3.5 | 7.0 | 0.00 | 0.00 | 0.00 | 50 | 1014.3 |
| 20260901172821 | 90 | 168 | 2.6 | 7.8 | 0.00 | 0.00 | 0.00 | 51 | 1014.5 |
| 20260901171921 | 90 | 179 | 1.7 | 7.0 | 0.00 | 0.00 | 0.00 | 51 | 1014.5 |
| 20260901170121 | 89 | 168 | 2.6 | 7.8 | 0.00 | 0.00 | 0.00 | 52 | 1014.4 |
| 20260901165221 | 89 | 202 | 1.7 | 7.8 | 0.00 | 0.00 | 0.00 | 53 | 1014.3 |
| 20260901164321 | 88 | 174 | 1.7 | 5.2 | 0.00 | 0.00 | 0.00 | 54 | 1014.3 |
| 20260901163421 | 87 | 191 | 1.7 | 4.3 | 0.00 | 0.00 | 0.00 | 55 | 1014.3 |
| 20260901161621 | 87 | 174 | 2.6 | 6.1 | 0.00 | 0.00 | 0.00 | 55 | 1014.2 |
| 20260901160721 | 86 | 145 | 1.7 | 7.0 | 0.00 | 0.01 | 0.00 | 55 | 1014.2 |
| 20260901155821 | 86 | 162 | 2.6 | 7.0 | 0.00 | 0.02 | 0.00 | 55 | 1014.1 |
| 20260901154021 | 85 | 129 | 2.6 | 6.1 | 0.00 | 0.06 | 0.00 | 56 | 1014.0 |
| 20260901151321 | 83 | 103 | 1.7 | 6.1 | 0.00 | 0.11 | 0.00 | 61 | 1013.8 |
| 20260901150421 | 83 | 89 | 0.9 | 2.6 | 0.00 | 0.11 | 0.00 | 61 | 1013.9 |
| 20260901145521 | 82 | 87 | 1.7 | 3.5 | 0.00 | 0.11 | 0.00 | 63 | 1013.9 |
| 20260901144621 | 82 | 79 | 1.7 | 4.3 | 0.00 | 0.11 | 0.00 | 64 | 1013.9 |
| 20260901143721 | 81 | 68 | 1.7 | 3.5 | 0.00 | 0.11 | 0.00 | 65 | 1013.8 |
| 20260901141921 | 80 | 83 | 1.7 | 3.5 | 0.00 | 0.12 | 0.00 | 68 | 1013.8 |
| 20260901135221 | 78 | 0 | 0.0 | 0.0 | 0.00 | 0.12 | 0.00 | 70 | 1013.8 |
| 20260901134321 | 78 | 0 | 0.0 | 0.0 | 0.00 | 0.12 | 0.00 | 70 | 1013.6 |
| 20260901133421 | 78 | 0 | 0.0 | 0.0 | 0.00 | 0.12 | 0.00 | 71 | 1013.4 |
| 20260901131621 | 77 | 70 | 1.7 | 3.5 | 0.00 | 0.12 | 0.00 | 71 | 1013.0 |
| 20260901130721 | 77 | 73 | 1.7 | 4.3 | 0.00 | 0.12 | 0.00 | 71 | 1013.0 |
| 20260901125821 | 77 | 69 | 1.7 | 4.3 | 0.00 | 0.12 | 0.00 | 70 | 1013.1 |
| 20260901124920 | 78 | 75 | 1.7 | 3.5 | 0.00 | 0.12 | 0.00 | 70 | 1013.2 |
| 20260901124021 | 78 | 73 | 0.9 | 3.5 | 0.00 | 0.12 | 0.00 | 70 | 1013.1 |
| 20260901122221 | 78 | 68 | 0.9 | 3.5 | 0.00 | 0.12 | 0.00 | 69 | 1013.0 |
| 20260901121321 | 78 | 66 | 0.9 | 3.5 | 0.00 | 0.12 | 0.00 | 69 | 1012.9 |
| 20260901120420 | 78 | 64 | 0.9 | 3.5 | 0.00 | 0.12 | 0.00 | 69 | 1012.7 |
| 20260901115520 | 78 | 64 | 0.9 | 2.6 | 0.00 | 0.12 | 0.00 | 69 | 1012.6 |
| 20260901114620 | 78 | 59 | 0.9 | 3.5 | 0.00 | 0.12 | 0.00 | 68 | 1012.6 |
| 20260901113720 | 78 | 56 | 0.0 | 1.7 | 0.00 | 0.12 | 0.00 | 69 | 1012.6 |
| 20260901112821 | 78 | 0 | 0.0 | 0.0 | 0.00 | 0.12 | 0.00 | 70 | 1012.5 |
| 20260901111921 | 78 | 0 | 0.0 | 0.0 | 0.00 | 0.12 | 0.00 | 70 | 1012.5 |
| 20260901105220 | 78 | 127 | 0.9 | 2.6 | 0.00 | 0.12 | 0.00 | 69 | 1012.4 |
| 20260901104321 | 78 | 126 | 0.9 | 1.7 | 0.00 | 0.12 | 0.00 | 68 | 1012.5 |
| 20260901103421 | 78 | 126 | 0.9 | 2.6 | 0.00 | 0.12 | 0.00 | 68 | 1012.6 |
| 20260901102520 | 78 | 127 | 0.0 | 2.6 | 0.00 | 0.12 | 0.00 | 68 | 1012.6 |
| 20260901101620 | 78 | 0 | 0.0 | 0.0 | 0.00 | 0.12 | 0.00 | 69 | 1012.6 |
| 20260901100720 | 78 | 0 | 0.0 | 0.0 | 0.00 | 0.12 | 0.00 | 69 | 1012.6 |
| 20260901095820 | 79 | 0 | 0.0 | 0.0 | 0.00 | 0.12 | 0.00 | 70 | 1012.5 |
| 20260901094920 | 78 | 0 | 0.0 | 0.0 | 0.00 | 0.12 | 0.00 | 70 | 1012.6 |
| 20260901094020 | 78 | 0 | 0.0 | 0.0 | 0.00 | 0.12 | 0.00 | 71 | 1012.6 |
| 20260901093120 | 78 | 0 | 0.0 | 0.0 | 0.00 | 0.12 | 0.00 | 70 | 1012.7 |
| 20260901092220 | 79 | 0 | 0.0 | 0.0 | 0.00 | 0.12 | 0.00 | 70 | 1012.8 |
| 20260901091320 | 79 | 0 | 0.0 | 0.0 | 0.00 | 0.12 | 0.00 | 70 | 1012.8 |
| 20260901090420 | 79 | 0 | 0.0 | 0.0 | 0.00 | 0.12 | 0.00 | 70 | 1012.9 |
| 20260901085520 | 79 | 0 | 0.0 | 0.0 | 0.00 | 0.12 | 0.00 | 69 | 1012.9 |
| 20260901084620 | 79 | 0 | 0.0 | 0.0 | 0.00 | 0.12 | 0.00 | 69 | 1012.8 |
| 20260901083720 | 79 | 0 | 0.0 | 0.0 | 0.00 | 0.12 | 0.00 | 69 | 1012.9 |
| 20260901082820 | 80 | 136 | 0.0 | 1.7 | 0.00 | 0.12 | 0.00 | 68 | 1012.9 |
| 20260901081920 | 80 | 0 | 0.0 | 0.0 | 0.00 | 0.12 | 0.00 | 67 | 1012.8 |
| 20260901081020 | 80 | 137 | 0.9 | 2.6 | 0.00 | 0.12 | 0.00 | 66 | 1012.8 |
| 20260901080120 | 80 | 141 | 0.9 | 2.6 | 0.00 | 0.12 | 0.00 | 66 | 1012.7 |
| 20260901075220 | 80 | 136 | 0.9 | 7.8 | 0.00 | 0.12 | 0.00 | 65 | 1012.7 |
| 20260901073420 | 80 | 0 | 0.0 | 0.0 | 0.00 | 0.12 | 0.00 | 67 | 1012.8 |